Regional Weather Roundup
Issued by NWS Little Rock, AR

Home | Current Version | Previous Version | Graphics & Text | Print | Product List | Glossary On
Versions: 1 2 3 4 5 6 7 8 9 10 11 12 13 14 15 16 17 18 19 20 21 22 23 24 25 26 27 28 29 30 31 32 33 34 35 36 37 38 39 40 41 42 43 44 45 46 47 48 49 50
000
ASUS44 KLZK 231005
RWRLZK

WEATHER ROUNDUP FOR ARKANSAS
NATIONAL WEATHER SERVICE LITTLE ROCK AR
500 AM CDT SAT MAY 23 2015

NOTE: "FAIR" INDICATES FEW OR NO CLOUDS BELOW 12,000 FEET WITH NO
SIGNIFICANT WEATHER AND/OR OBSTRUCTIONS TO VISIBILITY.

ARZ001-003-010-029-231100-
NORTHWEST ARKANSAS

CITY           SKY/WX    TMP DP  RH WIND       PRES   REMARKS
FAYETTEVILLE   HVY RAIN  58  55  90 S6        30.22R FOG
FORT SMITH     CLOUDY    60  58  92 E8        30.20S
HARRISON       CLOUDY    57  51  80 SE8       30.24S
BENTONVILLE    CLOUDY   N/A N/A N/A SE3       30.21R
ROGERS         LGT RAIN  59  53  80 SE8       30.22S
SILOAM SPGS    CLOUDY    55  48  76 SE8       30.22R
HIGHFILL       CLOUDY    58  54  86 SE5       30.21
$$

ARZ004-005-016-231100-
NORTH CENTRAL ARKANSAS

CITY           SKY/WX    TMP DP  RH WIND       PRES   REMARKS
BATESVILLE     CLOUDY    57  55  94 CALM      30.26R
FLIPPIN        CLOUDY    57  52  82 CALM      30.24R
MTN HOME       CLOUDY    58  53  84 E5        30.25R
$$

ARZ040-041-231100-
WEST CENTRAL ARKANSAS

CITY           SKY/WX    TMP DP  RH WIND       PRES   REMARKS
MENA           CLOUDY    61  59  94 CALM      30.21S
MOUNT IDA      CLOUDY    60  58  92 CALM      30.19S
$$

ARZ009-017-025-026-028-231100-
NORTHEAST ARKANSAS

CITY           SKY/WX    TMP DP  RH WIND       PRES   REMARKS
CORNING          N/A     59  57  94 NE5       30.28S
JONESBORO      CLOUDY    60  55  83 NE7       30.25F
NEWPORT        CLOUDY    62  57  83 NE7       30.26R
WALNUT RIDGE   CLOUDY    61  54  77 NE7       30.26S
BLYTHEVILLE    CLOUDY    61  56  83 E6        30.28R
$$

ARZ022-023-033-042-044-231100-
CENTRAL ARKANSAS

CITY           SKY/WX    TMP DP  RH WIND       PRES   REMARKS
LITTLE ROCK    MOCLDY    62  55  77 N7        30.23R
N LITTLE ROCK    N/A     61  57  87 NE6       30.23R
JACKSONVILLE   CLOUDY    62  56  82 N2        30.23R
SEARCY         CLOUDY    63  55  75 CALM      30.26R
HOT SPRINGS    MOCLDY    59  57  93 CALM      30.22R
RUSSELLVILLE   CLOUDY    60  58  92 E5        30.22R
CLINTON        MOCLDY    57  55  94 CALM      30.27R
$$

ARZ036-231100-
EAST ARKANSAS

CITY           SKY/WX    TMP DP  RH WIND       PRES   REMARKS
WEST MEMPHIS   CLOUDY    62  54  74 E3        30.24R
$$

ARZ050-053-066-070-073-231100-
SOUTHWEST ARKANSAS

CITY           SKY/WX    TMP DP  RH WIND       PRES   REMARKS
ARKADELPHIA    FAIR      60  60 100 VRB3      30.22R
CAMDEN         PTCLDY    57  55  94 CALM      30.21S
TEXARKANA      CLOUDY    62  58  86 E3        30.18R
EL DORADO      PTCLDY    59  57  93 CALM      30.20S
DE QUEEN       MOCLDY    61  58  90 E3        30.17S
$$

ARZ056-057-069-231100-
SOUTHEAST ARKANSAS

CITY           SKY/WX    TMP DP  RH WIND       PRES   REMARKS
PINE BLUFF     PTCLDY    62  57  83 CALM      30.23R
STUTTGART      CLOUDY    63  55  77 E6        30.22F
MONTICELLO     MOCLDY    59  57  93 E5        30.21R

$$





USA.gov is the U.S. government's official web portal to all federal, state and local government web resources and services.